sat.trackr.live / text

‹ back to catalog

STARLINK-1797

NORAD 46698 · 2020-073AE

PAYLOAD ACTIVE UNKNOWN

§ Identity

Operator
Country
US
Launch date
2020-10-18
Launch site
AFETR
Launch vehicle
Mass (kg)
RCS (m²)

Purposes: comms

External: N2YO · Heavens-Above · Gunter

§ Orbital elements

Epoch: 2026-09-13T04:00:01.998720Z

Period
90.34 min
Inclination
53.0304°
Eccentricity
0.0008950
Mean motion
15.94034788 rev/d
Perigee alt
285.0 km
Apogee alt
297.0 km
Semi-major
6,669.1 km
B*
8.3379e-4
RAAN
0.6791°
Arg perigee
339.7446°
Mean anomaly
150.2600°
Rev number
605

§ Raw data

STARLINK-17971 46698U 20073AE  26256.16668980  .00313290  49152-4  83379-3 0  99962 46698  53.0304   0.6791 0008950 339.7446 150.2600 15.94034788  6055

JSON: /api/v1/satellites/46698 · /tle

For live sub-satellite position, see the globe view (requires WebGL).

§ Visibility from observer

Set your observer location to see the next 7 days of passes ≥ 10°. The values pass through the URL so the page stays shareable.

No JS? Fill the form by hand. The geolocation button needs JavaScript.